Temp
-17 -18 -19 -20 -21 -22 -23 -23 -24 -25 -26 -27 -27 -28 -29 -29 -30 -31 -31 -31 -31 -32 -31 -31 -31 -32 -32 -30 -28 -27 -27 -25 -25 -24 -23 -23 -23 -23 -22 -22 -21 -21 -21 -20
-18 -19 -20 -21 -22 -23 -23 -24 -25 -26 -27 -28 -29 -30 -30 -31 -32 -32 -32 -32 -32 -33 -33 -32 -32 -33 -32 -31 -30 -28 -27 -27 -25 -25 -23 -24 -24 -23 -23 -22 -22 -22 -21 -20
-19 -20 -21 -21 -23 -24 -25 -26 -27 -28 -28 -29 -30 -30 -31 -32 -32 -33 -33 -33 -33 -33 -33 -34 -34 -34 -33 -32 -32 -31 -29 -28 -27 -26 -25 -24 -24 -24 -23 -23 -23 -23 -22 -21
-20 -21 -22 -23 -24 -25 -26 -27 -28 -29 -29 -30 -31 -31 -32 -33 -33 -33 -33 -33 -34 -34 -34 -35 -35 -35 -34 -34 -33 -32 -31 -29 -28 -27 -26 -26 -24 -24 -24 -24 -23 -23 -23 -22
-21 -21 -22 -24 -25 -26 -27 -28 -29 -29 -30 -30 -31 -32 -33 -33 -33 -33 -33 -34 -34 -35 -35 -36 -36 -36 -35 -35 -34 -34 -32 -31 -29 -27 -28 -26 -25 -25 -24 -25 -24 -23 -22 -22
-21 -23 -24 -25 -26 -27 -28 -29 -29 -30 -30 -31 -31 -33 -33 -34 -34 -34 -34 -34 -34 -35 -36 -36 -36 -36 -36 -35 -35 -35 -34 -32 -30 -30 -29 -28 -27 -26 -25 -24 -24 -24 -24 -24
-22 -23 -25 -26 -27 -28 -29 -29 -30 -30 -30 -31 -32 -33 -34 -34 -34 -34 -34 -34 -35 -36 -36 -36 -36 -36 -36 -36 -36 -36 -35 -34 -32 -31 -30 -30 -28 -27 -26 -26 -26 -25 -24 -24
-24 -24 -26 -27 -27 -28 -29 -30 -30 -30 -31 -32 -33 -34 -34 -34 -34 -34 -34 -34 -35 -36 -36 -36 -36 -36 -36 -36 -36 -36 -36 -35 -35 -33 -32 -31 -31 -29 -28 -27 -27 -25 -24 -25
-24 -25 -27 -27 -28 -29 -29 -30 -30 -31 -31 -33 -33 -34 -34 -34 -34 -34 -34 -34 -35 -36 -36 -36 -36 -37 -37 -37 -36 -37 -36 -36 -36 -36 -35 -34 -31 -31 -30 -29 -28 -27 -27 -26
-25 -26 -27 -28 -29 -29 -30 -30 -31 -32 -32 -33 -34 -35 -35 -35 -35 -35 -35 -35 -35 -36 -36 -37 -37 -37 -37 -37 -37 -37 -37 -36 -36 -36 -36 -36 -35 -33 -33 -31 -30 -29 -28 -27
-26 -27 -28 -29 -30 -30 -30 -31 -32 -33 -33 -34 -35 -35 -35 -35 -35 -35 -35 -35 -35 -36 -37 -37 -38 -37 -37 -37 -37 -37 -37 -37 -37 -37 -37 -36 -36 -35 -33 -33 -32 -30 -29 -28
-27 -28 -28 -29 -30 -31 -31 -32 -33 -34 -34 -35 -35 -35 -35 -35 -35 -35 -35 -35 -36 -36 -37 -38 -38 -38 -38 -38 -38 -37 -37 -37 -37 -37 -37 -37 -37 -36 -36 -35 -34 -33 -31 -30
-27 -28 -28 -29 -30 -31 -31 -33 -34 -35 -35 -35 -36 -35 -35 -36 -36 -36 -36 -36 -36 -36 -37 -38 -38 -38 -38 -39 -39 -38 -38 -37 -37 -37 -37 -37 -37 -37 -36 -36 -36 -35 -34 -33
-27 -28 -29 -30 -31 -31 -33 -34 -34 -35 -35 -36 -36 -36 -36 -36 -36 -36 -36 -36 -36 -37 -37 -38 -38 -39 -39 -39 -39 -39 -39 -38 -38 -38 -38 -38 -37 -37 -37 -37 -36 -36 -36 -35
-28 -28 -29 -30 -31 -32 -34 -34 -35 -35 -36 -36 -36 -36 -36 -37 -36 -36 -36 -36 -37 -37 -37 -38 -38 -39 -39 -39 -39 -39 -39 -39 -39 -38 -38 -38 -38 -38 -37 -37 -37 -36 -36 -36
-28 -29 -30 -31 -32 -34 -34 -34 -35 -35 -36 -37 -37 -37 -37 -37 -37 -37 -37 -37 -37 -37 -37 -38 -38 -39 -39 -39 -40 -40 -40 -39 -39 -39 -38 -38 -38 -38 -38 -38 -37 -37 -37 -36
-28 -29 -30 -31 -33 -34 -34 -35 -35 -35 -37 -37 -37 -37 -37 -37 -37 -37 -37 -37 -37 -37 -37 -38 -38 -39 -39 -39 -40 -40 -40 -39 -39 -39 -38 -38 -38 -38 -38 -38 -38 -38 -37 -37
-28 -29 -31 -33 -34 -34 -34 -35 -36 -37 -38 -38 -38 -38 -38 -38 -38 -38 -38 -38 -38 -37 -38 -38 -38 -39 -39 -39 -39 -40 -39 -39 -39 -39 -39 -39 -38 -38 -38 -38 -38 -38 -37 -37
-29 -30 -32 -34 -34 -34 -35 -36 -37 -38 -38 -38 -38 -38 -38 -38 -38 -38 -38 -38 -38 -37 -38 -38 -38 -38 -39 -39 -39 -39 -39 -39 -39 -39 -39 -39 -38 -38 -38 -38 -38 -37 -37 -37
-30 -32 -33 -34 -34 -34 -35 -36 -37 -38 -38 -39 -39 -39 -39 -38 -38 -38 -38 -38 -38 -38 -38 -38 -38 -38 -39 -39 -39 -39 -39 -39 -39 -39 -39 -39 -39 -38 -38 -38 -38 -37 -37 -37
-31 -33 -34 -34 -34 -35 -36 -37 -38 -38 -39 -39 -39 -39 -39 -39 -39 -39 -38 -38 -38 -38 -38 -38 -38 -38 -38 -38 -39 -39 -39 -39 -39 -39 -39 -39 -39 -38 -38 -38 -38 -38 -37 -37
-33 -34 -34 -34 -35 -36 -37 -38 -38 -39 -39 -39 -39 -39 -39 -39 -39 -39 -39 -39 -38 -38 -38 -38 -38 -38 -38 -38 -39 -39 -39 -39 -39 -39 -39 -39 -39 -38 -38 -38 -38 -38 -38 -38
-34 -34 -35 -35 -36 -37 -37 -38 -39 -39 -39 -39 -39 -39 -39 -39 -39 -39 -39 -39 -39 -39 -38 -38 -39 -38 -38 -38 -38 -39 -39 -39 -39 -39 -39 -39 -39 -39 -38 -38 -38 -38 -38 -38
-34 -35 -35 -36 -36 -37 -38 -38 -39 -39 -39 -39 -39 -40 -40 -40 -40 -40 -39 -39 -39 -39 -39 -39 -39 -39 -39 -39 -39 -39 -39 -39 -39 -39 -39 -39 -39 -39 -39 -39 -38 -38 -38 -38
-34 -35 -36 -36 -37 -37 -38 -39 -39 -39 -39 -39 -39 -39 -40 -40 -40 -40 -40 -40 -40 -39 -39 -39 -39 -39 -39 -40 -39 -39 -39 -39 -39 -39 -39 -39 -39 -39 -39 -39 -39 -39 -38 -38
-35 -36 -36 -37 -37 -38 -38 -38 -39 -39 -39 -39 -40 -40 -40 -40 -40 -40 -40 -40 -40 -40 -40 -40 -40 -40 -40 -40 -40 -40 -40 -40 -39 -39 -39 -39 -40 -40 -39 -39 -39 -39 -39 -39
-35 -36 -37 -37 -38 -38 -38 -39 -39 -39 -39 -40 -40 -40 -40 -40 -40 -40 -41 -41 -41 -41 -41 -41 -41 -41 -41 -41 -41 -40 -40 -40 -40 -40 -40 -40 -40 -40 -40 -40 -39 -39 -39 -39
Height
5653 5643 5631 5619 5608 5596 5582 5572 5560 5550 5539 5530 5519 5511 5503 5495 5485 5478 5471 5466 5461 5458 5455 5455 5455 5457 5454 5461 5468 5473 5478 5484 5496 5506 5511 5517 5527 5528 5535 5534 5543 5547 5555 5555
5641 5630 5620 5607 5594 5583 5572 5561 5551 5542 5531 5521 5511 5501 5492 5484 5477 5470 5464 5458 5454 5450 5448 5447 5445 5444 5443 5449 5453 5458 5464 5470 5480 5496 5504 5504 5503 5507 5512 5520 5527 5532 5540 5544
5630 5618 5607 5596 5581 5570 5558 5546 5536 5525 5518 5512 5502 5493 5484 5477 5469 5463 5457 5451 5447 5443 5441 5439 5438 5436 5436 5438 5441 5446 5450 5457 5464 5473 5474 5479 5481 5492 5501 5506 5515 5521 5527 5529
5617 5606 5593 5582 5571 5560 5547 5538 5527 5519 5508 5496 5489 5482 5476 5470 5464 5457 5449 5446 5440 5437 5435 5433 5432 5430 5430 5430 5431 5434 5438 5442 5450 5457 5461 5464 5469 5476 5486 5495 5498 5506 5508 5517
5606 5596 5583 5570 5560 5548 5539 5528 5518 5508 5500 5489 5480 5472 5466 5461 5457 5451 5445 5438 5434 5430 5428 5427 5426 5425 5424 5424 5425 5425 5425 5429 5433 5443 5446 5451 5456 5465 5471 5479 5487 5492 5494 5503
5595 5581 5570 5560 5548 5538 5527 5517 5509 5499 5490 5478 5470 5464 5457 5453 5449 5445 5439 5433 5428 5425 5423 5422 5422 5421 5420 5419 5418 5418 5420 5420 5424 5427 5431 5438 5446 5452 5458 5460 5470 5478 5485 5492
5582 5572 5560 5548 5537 5527 5516 5506 5497 5487 5479 5468 5458 5454 5450 5446 5442 5438 5433 5428 5423 5421 5419 5419 5418 5417 5416 5415 5414 5413 5413 5414 5416 5418 5420 5427 5432 5437 5443 5449 5454 5460 5467 5476
5570 5558 5548 5538 5527 5516 5506 5496 5484 5474 5467 5457 5450 5445 5441 5438 5434 5430 5426 5422 5419 5416 5415 5415 5414 5413 5413 5412 5410 5410 5409 5409 5409 5412 5412 5412 5419 5424 5430 5436 5442 5446 5455 5463
5560 5548 5537 5527 5516 5505 5494 5484 5473 5462 5455 5447 5441 5436 5433 5430 5427 5423 5421 5417 5413 5411 5410 5410 5410 5411 5410 5410 5408 5407 5407 5406 5406 5406 5406 5407 5411 5414 5417 5419 5430 5437 5443 5449
5548 5537 5527 5516 5505 5494 5482 5471 5460 5449 5443 5437 5431 5428 5426 5423 5420 5417 5415 5412 5408 5406 5405 5405 5405 5406 5405 5405 5404 5403 5403 5403 5402 5401 5402 5401 5402 5404 5403 5418 5427 5426 5431 5436
5536 5526 5515 5503 5492 5480 5469 5459 5449 5438 5432 5427 5423 5420 5418 5416 5414 5411 5409 5408 5404 5401 5400 5399 5398 5398 5397 5398 5397 5397 5398 5398 5398 5398 5397 5399 5398 5398 5403 5402 5405 5413 5419 5424
5526 5515 5503 5491 5478 5466 5454 5444 5435 5427 5421 5419 5415 5412 5411 5409 5407 5405 5403 5402 5399 5396 5395 5393 5392 5391 5390 5389 5390 5390 5392 5393 5394 5395 5394 5394 5394 5394 5394 5395 5397 5401 5406 5413
5515 5503 5491 5479 5466 5453 5441 5431 5423 5417 5412 5410 5407 5405 5404 5402 5400 5398 5397 5395 5393 5391 5389 5388 5387 5385 5384 5384 5382 5383 5384 5386 5387 5389 5389 5389 5390 5391 5392 5393 5394 5396 5399 5403
5503 5490 5477 5465 5453 5440 5428 5421 5414 5409 5404 5401 5400 5397 5396 5394 5393 5391 5390 5389 5387 5386 5384 5382 5381 5380 5379 5377 5376 5376 5377 5379 5380 5382 5384 5385 5386 5387 5388 5389 5391 5392 5394 5396
5490 5476 5464 5450 5438 5425 5416 5410 5406 5401 5398 5394 5392 5390 5388 5387 5386 5385 5384 5383 5381 5380 5379 5377 5375 5374 5372 5371 5370 5370 5370 5372 5375 5377 5379 5380 5381 5382 5383 5384 5385 5388 5389 5391
5477 5462 5449 5434 5422 5412 5407 5403 5399 5392 5389 5386 5384 5383 5381 5380 5379 5378 5377 5377 5376 5375 5374 5372 5370 5369 5368 5366 5365 5365 5366 5368 5369 5372 5374 5376 5377 5377 5378 5379 5380 5381 5382 5385
5463 5448 5434 5420 5411 5405 5399 5394 5389 5384 5381 5379 5378 5376 5375 5374 5373 5372 5371 5371 5370 5370 5369 5367 5365 5365 5364 5363 5362 5362 5363 5364 5365 5368 5370 5371 5373 5373 5373 5374 5375 5375 5376 5377
5449 5433 5419 5410 5402 5396 5391 5384 5378 5375 5374 5374 5372 5370 5369 5368 5367 5367 5366 5366 5365 5365 5364 5363 5361 5361 5360 5359 5359 5359 5360 5361 5362 5363 5365 5367 5368 5368 5369 5369 5369 5370 5371 5371
5434 5419 5409 5402 5396 5390 5383 5378 5373 5371 5371 5368 5366 5365 5364 5363 5362 5362 5361 5360 5360 5361 5360 5359 5358 5357 5357 5356 5356 5356 5357 5358 5358 5359 5361 5362 5362 5363 5363 5363 5363 5363 5364 5365
5420 5409 5402 5395 5389 5382 5377 5370 5368 5365 5364 5362 5362 5361 5360 5360 5358 5357 5357 5356 5356 5356 5356 5355 5354 5353 5353 5352 5352 5353 5353 5354 5354 5355 5356 5356 5357 5357 5357 5357 5357 5356 5356 5357
5411 5402 5395 5389 5382 5375 5369 5366 5364 5361 5360 5359 5358 5357 5356 5355 5354 5352 5352 5351 5351 5351 5352 5351 5351 5350 5349 5348 5348 5348 5349 5349 5349 5350 5350 5351 5351 5351 5351 5351 5350 5350 5350 5350
5405 5397 5389 5382 5375 5369 5366 5362 5360 5358 5357 5355 5353 5352 5351 5350 5348 5348 5347 5346 5346 5347 5347 5347 5347 5346 5345 5345 5344 5343 5343 5344 5344 5344 5344 5344 5345 5345 5345 5345 5345 5345 5344 5344
5398 5390 5383 5376 5370 5365 5360 5358 5355 5353 5351 5349 5348 5346 5345 5344 5344 5343 5342 5342 5342 5342 5342 5342 5342 5342 5341 5341 5340 5340 5339 5339 5338 5338 5339 5339 5339 5339 5340 5340 5340 5340 5340 5340
5391 5384 5377 5371 5365 5360 5357 5353 5350 5348 5345 5343 5341 5340 5339 5338 5338 5337 5337 5337 5337 5337 5337 5338 5337 5337 5337 5337 5336 5336 5335 5335 5334 5334 5333 5333 5333 5334 5334 5335 5335 5335 5336 5336
5386 5379 5372 5366 5361 5356 5352 5348 5345 5342 5340 5338 5336 5334 5333 5331 5331 5331 5331 5331 5331 5332 5332 5332 5332 5332 5332 5332 5332 5331 5331 5330 5330 5329 5329 5328 5328 5328 5329 5329 5329 5330 5330 5331
5381 5374 5368 5363 5358 5353 5349 5345 5341 5337 5334 5331 5330 5328 5326 5326 5325 5325 5324 5325 5326 5326 5326 5326 5327 5327 5327 5327 5327 5327 5326 5326 5325 5324 5324 5324 5323 5323 5323 5323 5323 5324 5324 5324
5377 5370 5365 5359 5354 5349 5344 5340 5336 5332 5329 5326 5323 5322 5321 5320 5319 5319 5319 5319 5319 5319 5320 5320 5320 5321 5321 5321 5321 5321 5321 5320 5320 5320 5319 5318 5318 5318 5318 5318 5318 5318 5318 5318
Wind_Speed
59 62 65 66 65 65 67 67 68 68 66 64 66 60 53 51 45 40 35 31 31 31 31 30 29 22 35 45 58 54 39 54 59 43 41 48 49 42 43 46 51 52 51 53
63 64 66 65 66 65 66 66 67 64 63 60 62 55 52 46 40 38 33 30 27 27 26 25 24 25 33 34 44 60 62 37 55 60 34 38 50 45 52 50 47 51 52 55
65 66 66 65 64 64 65 66 65 63 62 61 57 51 47 41 37 36 34 30 28 26 24 22 19 21 23 26 33 46 60 63 41 55 61 55 47 52 45 46 53 51 50 53
66 66 64 64 63 62 64 64 62 59 60 60 54 50 43 37 34 33 36 28 27 25 24 19 15 17 19 21 24 35 52 59 65 51 56 60 56 57 62 55 48 50 58 48
67 66 64 63 62 62 62 61 59 60 61 55 52 48 40 35 33 31 32 30 26 23 20 18 13 18 18 17 20 25 35 54 65 62 51 56 64 58 62 63 61 53 49 56
66 64 63 62 62 62 63 58 57 62 56 53 50 42 36 34 33 29 30 28 24 18 15 13 13 15 14 13 16 19 25 35 54 59 62 56 53 56 50 63 68 69 69 64
66 64 62 63 62 62 60 59 61 59 54 51 45 39 33 31 31 28 27 26 22 16 15 11 14 14 14 15 15 14 15 22 32 52 63 57 60 52 54 52 50 47 60 63
65 64 62 62 63 61 60 61 60 57 54 47 41 34 30 29 29 27 26 24 21 17 17 14 15 13 12 11 11 12 12 12 17 26 42 56 54 61 67 59 51 58 61 61
64 63 62 63 64 61 62 63 59 57 52 43 37 30 28 27 27 26 24 23 20 18 21 18 16 15 15 14 13 14 13 12 14 11 19 29 47 56 61 62 64 56 52 50
64 63 64 65 64 63 65 64 59 54 48 37 32 27 25 25 26 23 23 21 19 17 20 23 22 19 19 19 19 18 16 12 11 13 14 20 26 40 47 53 54 56 59 63
63 63 65 65 65 66 66 64 57 48 42 33 28 26 24 24 26 23 21 20 18 17 16 17 15 23 23 27 27 24 21 18 16 13 16 19 18 22 35 39 47 58 60 63
63 65 66 68 68 69 69 62 52 41 36 30 27 25 23 23 24 22 21 19 18 17 14 12 14 12 17 21 24 26 24 22 19 15 15 16 15 15 17 22 32 37 48 56
65 67 69 71 71 71 66 54 42 36 34 29 26 24 24 21 23 23 21 19 18 18 16 15 15 15 17 13 18 27 25 24 23 20 18 18 15 14 13 12 14 20 24 28
68 70 72 74 73 71 57 43 36 34 32 28 22 22 25 22 21 21 21 19 17 17 18 17 16 17 17 17 19 20 24 25 23 22 20 20 19 17 16 17 16 15 17 20
70 73 75 77 74 58 44 37 34 31 30 28 25 23 23 22 19 20 20 20 17 17 17 17 16 16 18 18 19 17 18 21 21 19 18 18 20 21 21 20 20 20 20 20
74 77 79 76 60 44 35 33 30 31 26 22 22 21 20 20 19 19 18 18 18 16 16 15 14 13 15 14 11 10 11 15 23 19 20 17 17 17 18 22 24 23 23 24
77 80 78 62 45 34 32 32 31 27 21 19 20 20 16 17 16 17 18 18 18 16 14 13 12 12 13 12 9 12 14 12 13 22 19 18 18 16 18 17 18 21 23 25
80 79 64 45 34 32 33 30 29 26 23 21 19 19 18 18 18 18 17 17 17 15 13 11 12 13 14 12 10 10 11 17 12 18 21 18 19 19 18 18 18 19 20 20
79 66 47 35 32 34 31 26 22 20 20 19 17 14 14 13 14 15 14 15 15 13 12 11 11 12 13 11 12 12 13 13 15 20 20 21 20 18 19 20 22 22 22 22
68 49 36 33 34 34 29 22 18 17 16 15 13 12 11 13 13 14 15 14 14 12 12 11 11 11 12 13 12 14 16 15 14 14 16 19 20 22 22 22 22 22 22 22
51 38 35 36 36 30 23 17 14 12 11 12 14 14 15 16 16 15 15 15 15 14 13 13 11 13 12 12 14 15 16 17 18 19 20 21 20 19 17 18 17 16 17 19
41 37 38 38 32 25 19 16 14 12 12 14 14 15 15 13 13 13 14 14 16 15 14 14 13 14 12 12 13 14 16 18 19 19 19 18 17 16 16 14 13 13 13 14
41 41 40 32 26 22 20 17 16 15 16 16 17 17 15 14 13 13 13 14 14 15 16 15 15 15 13 13 13 13 13 14 15 17 18 18 18 17 16 15 13 12 12 12
43 40 32 27 25 22 19 18 17 16 16 16 17 17 18 17 17 16 16 15 15 15 14 14 16 15 14 13 13 13 13 13 13 14 15 16 17 17 17 16 15 15 14 14
39 34 29 26 24 22 20 19 18 17 16 15 14 14 15 17 19 19 18 18 18 17 15 15 16 16 15 15 14 14 14 14 14 14 14 14 15 16 17 17 17 17 17 16
34 30 27 25 22 20 19 18 17 17 16 16 16 16 15 16 15 15 18 20 20 19 19 18 18 18 18 18 17 16 15 15 15 15 14 14 15 15 16 16 17 17 17 17
31 28 26 23 21 21 20 20 19 19 17 16 15 13 13 14 14 14 16 17 18 19 20 21 21 21 21 21 20 18 17 16 16 16 16 15 15 15 16 17 17 16 16 17
Wind_Direction
325 326 328 329 330 329 328 327 327 327 327 329 331 332 331 329 326 324 315 308 298 292 288 281 267 257 249 239 228 228 229 226 227 225 232 234 235 229 230 244 238 239 237 243
328 328 330 331 330 329 328 327 326 327 328 331 332 331 331 330 326 328 321 313 305 296 292 290 277 261 257 244 234 228 228 231 223 221 211 226 229 226 223 223 230 233 236 239
330 330 330 331 329 328 327 326 327 328 329 330 330 330 329 328 324 327 326 318 307 299 294 292 286 274 264 255 238 228 227 230 222 213 215 217 206 223 223 228 227 229 236 235
328 330 329 330 329 327 326 326 326 328 330 329 328 326 326 323 322 325 325 322 310 298 291 281 287 282 269 256 246 234 226 224 225 221 214 220 223 221 227 224 213 224 230 231
328 329 330 328 327 326 325 324 325 326 328 325 324 322 321 320 322 321 325 324 315 299 285 280 276 286 281 265 256 244 239 232 227 219 217 213 217 218 212 224 221 218 212 225
328 327 328 327 325 325 325 324 324 325 326 324 321 318 316 316 318 319 324 325 316 296 289 277 274 292 294 279 267 255 245 238 233 239 237 233 219 213 208 206 213 221 225 226
327 329 326 325 325 324 323 324 325 325 325 321 316 313 310 312 314 315 320 324 317 292 273 275 276 288 293 288 284 284 269 247 236 235 240 240 235 224 218 219 208 205 209 218
326 326 324 324 324 322 322 324 325 324 324 319 313 308 305 308 309 312 317 324 317 288 277 283 274 285 290 290 284 283 286 272 252 239 236 238 238 239 237 231 229 220 224 218
326 325 323 323 323 322 322 326 325 322 322 316 310 304 302 304 306 308 312 320 314 290 269 275 276 269 263 280 276 278 276 271 262 247 250 244 237 241 242 241 236 236 233 227
326 324 323 322 322 322 324 327 325 321 320 313 305 302 298 299 303 300 305 314 314 301 279 273 267 263 266 265 270 277 268 263 267 246 253 249 243 242 244 242 238 239 237 238
324 323 322 322 322 323 325 326 324 318 316 311 305 300 295 295 301 294 299 305 312 305 293 281 269 264 266 267 264 259 262 260 264 277 257 257 262 256 245 244 242 239 237 235
324 322 322 322 324 325 327 324 322 315 313 309 303 297 292 294 296 291 290 294 303 304 296 288 278 272 262 256 259 255 254 253 255 270 264 256 255 259 257 248 245 244 243 240
324 322 323 324 325 325 325 321 318 313 309 305 301 296 293 292 294 290 285 286 295 300 298 288 284 279 276 273 260 250 251 252 254 263 260 248 251 247 246 241 241 240 239 235
324 324 324 324 325 325 321 319 316 313 307 304 299 293 294 288 287 286 283 281 287 295 295 291 288 280 284 278 269 262 247 242 247 248 242 240 243 246 247 243 238 230 227 233
324 324 324 324 326 323 321 321 317 310 305 300 296 290 288 285 283 281 283 281 284 289 292 291 289 283 285 285 273 269 251 233 229 235 238 244 249 247 247 249 246 240 237 233
326 324 324 327 325 325 322 318 313 307 303 297 295 289 288 281 279 279 279 280 282 284 289 290 291 280 291 296 276 246 252 244 231 232 234 239 241 249 256 253 251 252 252 247
324 324 327 326 326 323 321 316 311 308 306 302 296 293 282 288 285 280 277 282 280 279 287 291 286 278 289 292 272 243 233 237 239 228 234 245 241 258 262 259 257 258 259 258
325 326 328 329 327 326 322 319 312 309 307 298 292 288 284 281 276 275 276 276 276 278 283 287 286 279 283 278 265 248 244 235 236 235 241 250 255 263 256 254 256 255 256 259
327 329 330 331 328 325 322 315 304 290 284 288 289 282 280 276 270 271 269 271 274 275 276 281 282 284 279 276 258 257 249 247 246 244 245 248 260 260 264 264 265 266 263 263
330 330 333 331 328 325 321 315 304 293 287 283 274 271 273 280 280 279 280 275 273 271 273 277 284 283 281 274 267 257 253 253 252 249 248 253 259 264 266 269 270 269 265 258
331 334 334 330 329 326 325 318 308 298 281 268 262 272 281 282 281 278 275 273 268 265 267 271 278 280 286 281 269 262 259 258 256 257 259 261 263 264 261 269 265 264 262 256
334 334 333 330 329 330 327 320 309 295 281 276 274 279 282 278 276 276 272 268 266 265 264 268 275 277 283 282 276 270 265 262 261 260 261 263 263 260 259 264 262 264 264 257
335 334 331 332 332 330 326 319 308 296 291 285 283 283 281 278 274 273 272 269 268 264 262 265 269 272 278 277 280 278 276 275 271 265 262 263 263 262 262 263 265 265 263 260
334 332 334 337 334 331 325 318 312 306 299 293 285 279 276 272 269 268 267 266 266 267 268 265 265 270 273 270 277 280 281 279 277 275 271 265 262 262 262 264 266 268 269 268
333 335 337 336 333 331 328 323 318 311 305 300 296 291 281 272 266 263 262 263 265 269 271 267 265 267 266 270 276 278 280 281 281 278 275 272 268 266 265 265 266 266 266 266
337 336 336 335 333 332 330 328 325 321 313 305 296 286 278 271 270 266 260 260 263 264 265 263 263 263 264 269 272 275 278 279 280 279 277 275 272 271 269 267 267 267 267 267
337 340 339 338 337 337 336 333 329 325 318 309 301 292 281 273 268 265 263 258 257 256 257 259 261 262 263 268 272 272 275 278 277 276 275 274 272 270 268 267 266 266 266 266